This demonstration page uses our WeatherBlox Daily Observations layout. Learn more.

Left ArrowRight Arrow

34.02893, -84.19858

Hourly Observations for February 10, 2017

Temp ( °F °C ) Dew Point ( °F °C ) Humidity (%) Winds ( mph kmh ) Pressure ( in mb ) Visibility ( mi km ) Precip ( " mm )
12:53 am 00:53 Clear 34 1.1 17 -8.3 50 50 WNW 9 15 30.38 1029 10 16 0.00 0.00
1:53 am 01:53 Clear 32 0 17 -8.3 54 54 W 3 6 30.39 1029 10 16 0.00 0.00
2:53 am 02:53 Clear 31 -0.6 17 -8.3 56 56 W 3 6 30.40 1029 10 16 0.00 0.00
3:53 am 03:53 Clear 30 -1.1 18 -7.8 61 61 WNW 3 6 30.41 1030 10 16 0.00 0.00
4:53 am 04:53 Clear 31 -0.6 17 -8.3 56 56 WNW 6 9 30.43 1030 10 16 0.00 0.00
5:53 am 05:53 Clear 30 -1.1 17 -8.3 58 58 WNW 3 6 30.44 1031 10 16 0.00 0.00
6:53 am 06:53 Clear 29 -1.7 18 -7.8 63 63 Calm 30.44 1031 10 16 0.00 0.00
7:53 am 07:53 Sunny 30 -1.1 18 -7.8 61 61 Calm 30.45 1031 10 16 0.00 0.00
8:53 am 08:53 Sunny 36 2.2 19 -7.2 50 50 Calm 30.46 1032 10 16 0.00 0.00
9:53 am 09:53 Sunny 41 5 18 -7.8 39 39 Calm 30.46 1032 10 16 0.00 0.00
10:53 am 10:53 Sunny 47 8.3 14 -10 26 26 Calm 30.45 1031 10 16 0.00 0.00
11:53 am 11:53 Sunny 53 11.7 6 -14.4 15 15 undefined N/A 30.42 1030 10 16 0.00 0.00
12:53 pm 12:53 Sunny 56 13.3 5 -15 13 13 VRB 5 7 30.38 1029 10 16 0.00 0.00
1:53 pm 13:53 Sunny 59 15 13 -10.6 16 16 SSW 9 15 30.34 1028 10 16 0.00 0.00
2:53 pm 14:53 Sunny 60 15.6 16 -8.9 18 18 SSE 6 9 30.32 1027 10 16 0.00 0.00
3:53 pm 15:53 Sunny 62 16.7 16 -8.9 17 17 SSE 10 17 30.30 1026 10 16 0.00 0.00
4:53 pm 16:53 Sunny 62 16.7 19 -7.2 19 19 S 7 11 30.29 1026 10 16 0.00 0.00
5:53 pm 17:53 Sunny 59 15 19 -7.2 21 21 SSE 3 6 30.28 1025 10 16 0.00 0.00
6:53 pm 18:53 Clear 56 13.3 21 -6.1 26 26 SSE 3 6 30.28 1026 10 16 0.00 0.00
7:53 pm 19:53 Clear 53 11.7 22 -5.6 30 30 S 6 9 30.28 1026 10 16 0.00 0.00
8:53 pm 20:53 Clear 52 11.1 22 -5.6 31 31 S 3 6 30.28 1025 10 16 0.00 0.00
9:53 pm 21:53 Clear 51 10.6 24 -4.4 35 35 S 5 7 30.27 1025 10 16 0.00 0.00
10:53 pm 22:53 Clear 50 10 25 -3.9 38 38 S 3 6 30.26 1025 10 16 0.00 0.00
11:53 pm 23:53 Clear 48 8.9 26 -3.3 42 42 S 5 7 30.24 1024 10 16 0.00 0.00

Powered by AerisWeather